| time (UTC) | temp F | wind direction | speed MPH | gust MPH | rain 1hr in | rain 24hr in | rain mn in | humidity % | barometer mb |
| 20260503031043 | 54 | 88 | 0.0 | 0.0 | 0.00 | 0.70 | 0.70 | 93 | 1015.2 |
| 20260503030039 | 54 | 88 | 0.0 | 0.0 | 0.00 | 0.70 | 0.70 | 93 | 1015.2 |
| 20260503025035 | 54 | 88 | 0.0 | 0.0 | 0.00 | 0.70 | 0.70 | 92 | 1015.0 |
| 20260503024054 | 54 | 88 | 0.0 | 0.0 | 0.00 | 0.70 | 0.70 | 92 | 1014.9 |
| 20260503023106 | 54 | 88 | 0.0 | 0.0 | 0.00 | 0.70 | 0.70 | 92 | 1014.7 |
| 20260503022119 | 54 | 88 | 0.0 | 0.0 | 0.00 | 0.70 | 0.70 | 92 | 1014.4 |
| 20260503021110 | 54 | 88 | 0.0 | 0.0 | 0.00 | 0.70 | 0.70 | 92 | 1014.1 |
| 20260503020105 | 54 | 88 | 0.0 | 0.0 | 0.05 | 0.70 | 0.70 | 92 | 1014.1 |
| 20260503015035 | 54 | 88 | 0.0 | 0.0 | 0.21 | 0.65 | 0.70 | 92 | 1014.0 |
| 20260503014042 | 54 | 88 | 0.0 | 0.0 | 0.00 | 0.65 | 0.66 | 92 | 1013.9 |
| 20260503013045 | 54 | 88 | 0.0 | 0.0 | 0.00 | 0.65 | 0.66 | 92 | 1013.4 |
| 20260503012047 | 55 | 88 | 0.0 | 0.0 | 0.00 | 0.65 | 0.66 | 92 | 1013.2 |
| 20260503011100 | 55 | 88 | 0.0 | 0.0 | 0.00 | 0.65 | 0.66 | 92 | 1013.1 |
| 20260503010045 | 54 | 88 | 0.0 | 0.0 | 0.00 | 0.65 | 0.66 | 92 | 1013.0 |
| 20260503005048 | 54 | 88 | 0.0 | 0.0 | 0.00 | 0.65 | 0.66 | 91 | 1012.9 |
| 20260503004038 | 55 | 88 | 0.0 | 0.0 | 0.00 | 0.65 | 0.66 | 91 | 1012.7 |
| 20260503003021 | 55 | 88 | 0.0 | 0.0 | 0.00 | 0.65 | 0.66 | 91 | 1012.7 |
| 20260503002034 | 55 | 88 | 0.0 | 0.0 | 0.00 | 0.65 | 0.66 | 91 | 1012.4 |
| 20260503001038 | 55 | 88 | 0.0 | 0.0 | 0.00 | 0.65 | 0.66 | 90 | 1012.4 |
| 20260503000039 | 56 | 88 | 0.0 | 0.0 | 0.00 | 0.65 | 0.66 | 90 | 1012.1 |
| 20260502235051 | 56 | 88 | 0.0 | 0.0 | 0.00 | 0.65 | 0.66 | 90 | 1011.9 |
| 20260502234105 | 57 | 88 | 0.0 | 0.0 | 0.00 | 0.65 | 0.66 | 90 | 1011.9 |
| 20260502233058 | 57 | 88 | 0.0 | 0.0 | 0.00 | 0.65 | 0.66 | 90 | 1011.8 |
| 20260502232111 | 57 | 88 | 0.0 | 2.0 | 0.00 | 0.65 | 0.66 | 90 | 1011.8 |
| 20260502231050 | 57 | 88 | 0.0 | 0.0 | 0.00 | 0.65 | 0.66 | 90 | 1011.7 |
| 20260502230053 | 57 | 88 | 0.0 | 0.0 | 0.00 | 0.65 | 0.66 | 90 | 1011.5 |
| 20260502225046 | 57 | 88 | 1.0 | 6.0 | 0.00 | 0.65 | 0.66 | 90 | 1011.5 |
| 20260502224037 | 57 | 92 | 0.0 | 3.0 | 0.00 | 0.65 | 0.66 | 90 | 1011.6 |
| 20260502223058 | 57 | 93 | 0.0 | 5.0 | 0.00 | 0.65 | 0.66 | 90 | 1011.5 |
| 20260502222048 | 57 | 78 | 1.0 | 4.0 | 0.00 | 0.65 | 0.66 | 90 | 1011.5 |
| 20260502221027 | 57 | 80 | 2.0 | 8.0 | 0.00 | 0.65 | 0.66 | 90 | 1011.3 |
| 20260502214908 | 57 | 69 | 1.0 | 9.0 | 0.00 | 0.65 | 0.66 | 91 | 1011.1 |
| 20260502213930 | 57 | 70 | 0.0 | 5.0 | 0.00 | 0.65 | 0.66 | 92 | 1011.1 |
| 20260502212858 | 56 | 68 | 1.0 | 7.0 | 0.00 | 0.65 | 0.66 | 91 | 1011.2 |
| 20260502211907 | 57 | 69 | 2.0 | 12.0 | 0.00 | 0.65 | 0.66 | 92 | 1011.1 |
| 20260502202428 | 59 | 62 | 1.0 | 7.0 | 0.04 | 0.65 | 0.66 | 92 | 1010.7 |
| 20260502201404 | 59 | 79 | 0.0 | 4.0 | 0.04 | 0.65 | 0.66 | 92 | 1010.9 |
| 20260502200354 | 59 | 44 | 3.0 | 13.0 | 0.06 | 0.64 | 0.65 | 91 | 1010.7 |
| 20260502195322 | 60 | 79 | 2.0 | 13.0 | 0.00 | 0.63 | 0.64 | 91 | 1010.7 |
| 20260502194341 | 60 | 53 | 0.0 | 0.0 | 0.00 | 0.63 | 0.63 | 92 | 1010.7 |
| 20260502193305 | 60 | 53 | 0.0 | 0.0 | 0.00 | 0.63 | 0.63 | 92 | 1010.7 |
| 20260502191111 | 60 | 53 | 0.0 | 0.0 | 0.00 | 0.63 | 0.63 | 92 | 1010.9 |
| 20260502190056 | 60 | 53 | 0.0 | 0.0 | 0.00 | 0.63 | 0.63 | 92 | 1010.8 |
| 20260502182747 | 60 | 53 | 0.0 | 0.0 | 0.00 | 0.63 | 0.63 | 92 | 1010.8 |
| 20260502163954 | 59 | 55 | 0.0 | 0.0 | 0.00 | 0.63 | 0.63 | 93 | 1011.4 |
| 20260502162939 | 58 | 55 | 0.0 | 0.0 | 0.00 | 0.63 | 0.63 | 93 | 1011.4 |
| 20260502160804 | 58 | 55 | 0.0 | 0.0 | 0.00 | 0.62 | 0.63 | 93 | 1011.6 |
| 20260502151809 | 58 | 52 | 0.0 | 0.0 | 0.00 | 0.59 | 0.60 | 93 | 1011.6 |
| 20260502150831 | 58 | 53 | 0.0 | 0.0 | 0.00 | 0.59 | 0.60 | 93 | 1011.7 |
| 20260502130653 | 57 | 313 | 0.0 | 0.0 | 0.00 | 0.52 | 0.52 | 93 | 1011.1 |
| 20260502122451 | 57 | 309 | 0.0 | 0.0 | 0.10 | 0.46 | 0.51 | 93 | 1011.1 |
| 20260502121417 | 57 | 309 | 0.0 | 0.0 | 0.16 | 0.43 | 0.48 | 93 | 1011.5 |
| 20260502120342 | 57 | 311 | 0.0 | 0.0 | 0.17 | 0.42 | 0.45 | 92 | 1011.4 |
| 20260502114206 | 57 | 11 | 0.0 | 7.0 | 0.00 | 0.39 | 0.40 | 93 | 1011.0 |
| 20260502113204 | 57 | 19 | 0.0 | 0.0 | 0.00 | 0.39 | 0.40 | 93 | 1010.3 |
| 20260502112222 | 57 | 19 | 0.0 | 0.0 | 0.00 | 0.39 | 0.40 | 92 | 1010.0 |
| 20260502111150 | 57 | 19 | 0.0 | 0.0 | 0.00 | 0.39 | 0.40 | 92 | 1010.2 |
| 20260502110130 | 57 | 19 | 0.0 | 0.0 | 0.05 | 0.39 | 0.40 | 93 | 1010.0 |
| 20260502105135 | 57 | 19 | 0.0 | 0.0 | 0.00 | 0.38 | 0.38 | 93 | 1010.1 |
| 20260502104103 | 57 | 19 | 0.0 | 0.0 | 0.00 | 0.38 | 0.38 | 93 | 1010.0 |
| 20260502103100 | 57 | 19 | 0.0 | 0.0 | 0.06 | 0.36 | 0.38 | 93 | 1010.0 |
| 20260502102036 | 57 | 19 | 0.0 | 0.0 | 0.05 | 0.36 | 0.37 | 93 | 1009.7 |
| 20260502101026 | 57 | 19 | 0.0 | 0.0 | 0.08 | 0.33 | 0.36 | 92 | 1010.1 |
| 20260502090808 | 58 | 19 | 0.0 | 0.0 | 0.04 | 0.29 | 0.31 | 92 | 1010.4 |
| 20260502070613 | 61 | 33 | 0.0 | 0.0 | 0.13 | 0.09 | 0.12 | 92 | 1010.6 |
| 20260502065603 | 61 | 33 | 0.0 | 0.0 | 0.06 | 0.08 | 0.10 | 92 | 1010.8 |
| 20260502064547 | 62 | 33 | 0.0 | 0.0 | 0.04 | 0.06 | 0.08 | 91 | 1011.0 |
| 20260502063601 | 62 | 33 | 0.0 | 0.0 | 0.04 | 0.06 | 0.06 | 91 | 1010.9 |
| 20260502061451 | 62 | 33 | 0.0 | 0.0 | 0.06 | 0.04 | 0.06 | 91 | 1011.2 |
| 20260502060511 | 62 | 33 | 0.0 | 0.0 | 0.05 | 0.04 | 0.05 | 91 | 1011.3 |
| 20260502055512 | 62 | 33 | 0.0 | 0.0 | 0.06 | 0.03 | 0.04 | 91 | 1011.3 |
| 20260502054511 | 62 | 33 | 0.0 | 0.0 | 0.05 | 0.02 | 0.03 | 91 | 1011.1 |
| 20260502053535 | 62 | 33 | 0.0 | 0.0 | 0.00 | 0.01 | 0.02 | 90 | 1011.1 |
| 20260502050258 | 62 | 33 | 0.0 | 0.0 | 0.00 | 0.01 | 0.01 | 90 | 1011.7 |
| 20260502045254 | 62 | 33 | 0.0 | 0.0 | 0.00 | 0.01 | 0.01 | 90 | 1011.8 |
| 20260502044249 | 62 | 33 | 0.0 | 0.0 | 0.00 | 0.00 | 0.01 | 89 | 1011.8 |
| 20260502043216 | 62 | 33 | 0.0 | 0.0 | 0.00 | 0.00 | 0.01 | 89 | 1011.7 |
| 20260502042226 | 62 | 33 | 0.0 | 0.0 | 0.00 | 0.00 | 0.00 | 89 | 1011.5 |
| 20260502041244 | 62 | 33 | 0.0 | 0.0 | 0.00 | 0.00 | 0.00 | 88 | 1011.4 |
| 20260502040252 | 62 | 33 | 0.0 | 0.0 | 0.00 | 0.00 | 0.00 | 88 | 1011.4 |
| 20260502034109 | 63 | 33 | 0.0 | 0.0 | 0.00 | 0.00 | 0.00 | 88 | 1011.5 |
| 20260502033123 | 63 | 33 | 0.0 | 0.0 | 0.00 | 0.00 | 0.00 | 88 | 1011.4 |